User: anonymous   Login
Location: Unspecified
(0.0000°N, 0.0000°E)
Time: 22:47:37
(UTC+00:00)
Language:

TIANWANG 1C (TW-1C) - Orbit

View from above orbital plane
View from above orbital plane
View from above satellite
View from above satellite

Ground track
Ground track

The orbit data is extracted from the following two-line orbital elements,

1 40926U 15051B   17113.76417920 +.00016663 +00000-0 +39313-3 0  9996
2 40926 097.2353 153.7603 0012188 016.6345 078.7010 15.41880060088532
Epoch (UTC): 23 April 2017 18:20:25
Eccentricity: 0.0012188
inclination: 97.2353°
perigee height: 432 km
apogee height: 449 km
right ascension of ascending node: 153.7603°
argument of perigee: 16.6345°
revolutions per day: 15.41880060
mean anomaly at epoch: 78.7010°
orbit number at epoch: 8853

The dashed part of the orbit path shows where the satellite is in the earth's shadow,  

DLR